Regional Weather Roundup
Issued by NWS Wakefield, VA

Home | Current Version | Previous Version | Text Only | Print | Product List | Glossary Off
Versions: 1 2 3 4 5 6 7 8 9 10 11 12 13 14 15 16 17 18 19 20 21 22 23 24 25 26 27 28

000
ASUS41 KAKQ 240910
RWRAKQ

REGIONAL WEATHER ROUNDUP
NATIONAL WEATHER SERVICE WAKEFIELD VA
500 AM EDT FRI OCT 24 2014

Note: "fair" indicates few or no clouds below 12,000 feet with no
significant weather and/or obstructions to visibility. * = Denotes
station may not report precipitation (e.g., rain,snow,etc.),
thunder or fog.

VAZ042-051-052>054-056-241000-
NORTHERN VIRGINIA

CITY           SKY/WX    TMP DP  RH WIND       PRES   REMARKS
WASH NATIONAL  CLEAR     57  41  55 NW10      29.94R
DULLES         CLEAR     51  42  71 NW7       29.96R
FORT BELVOIR   CLEAR     53  42  66 W5        29.95R
QUANTICO       CLEAR     53  42  66 NW8       29.97R
FREDERICKSBRG* CLEAR     53  44  70 W5        29.95R
STAFFORD*      CLEAR     47  41  78 CALM      30.00R
WARRENTON      CLEAR     50  46  88 NE3       29.96R
CULPEPER*      CLEAR     48  43  81 W3        29.98R
MANASSAS*      CLEAR     54  45  71 NW15      29.96R
LEESBURG*      CLEAR     54  45  71 NW16      29.96R
WINCHESTER     CLEAR     52  37  58 NW9       29.99R
FRONT ROYAL*   SUNNY     52  41  66 CALM      29.97R
LURAY*         SUNNY     54  43  66 NW5       29.99R
$$

VAZ048-049-060>072-079>083-241000-
CENTRAL AND SOUTH CENTRAL VIRGINIA...AND NORTH CENTRAL NORTH CAROLINA

CITY           SKY/WX    TMP DP  RH WIND       PRES   REMARKS
RICHMOND       CLEAR     52  42  69 NW8       29.96R
CHESTERFIELD*    N/A    N/A N/A N/A MISG        N/A
PETERSBURG*    CLEAR     48  40  74 W6        29.98R
HANOVER        CLEAR     47  42  83 CALM      29.98R
TAPPAHANNOCK*  CLEAR     53  40  62 W6        29.95R
CHARLOTTSVILLE CLEAR     54  39  57 CALM      29.98R
ORANGE*        CLEAR     45  41  87 CALM      29.98R
LOUISA*        CLEAR     43  41  93 CALM      29.95S
FARMVILLE*     CLEAR     46  39  76 SW5       29.98R
CREWE*         MOSUNNY   49  40  72 NW7       29.98R
FORT PICKETT*  MOSUNNY   46  41  83 W7        29.98R
LUNENBURG*     MOSUNNY   47  42  81 W3        29.99R
SOUTH HILL*    PTCLDY    50  43  76 W5        30.05R
LAWRENCEVILLE* MOSUNNY   44  42  93 CALM      29.99R
ROANOKE RAPIDS MOSUNNY   46  43  87 CALM      29.99R
RALEIGH        MOCLDY    48  40  73 CALM      30.02R
$$

VAZ088>098-241000-
SOUTHEAST VIRGINIA

CITY           SKY/WX    TMP DP  RH WIND       PRES   REMARKS
NORFOLK        CLEAR     57  44  62 NW8       29.93R
VIRGINIA BEACH CLEAR     56  43  61 W9        29.92R
NORFOLK NAVAL  CLEAR     58  45  62 NW10      29.95R
WEST POINT*    CLEAR     55  44  68 W7        29.96R
NEWPORT NEWS   CLEAR     57  44  62 NW8       29.94R
LANGLEY AFB    CLEAR     54  44  69 NW10      29.93R
FORT EUSTIS    CLEAR     53  45  73 NW9       29.93R
WILLIAMSBURG*  CLEAR     52  46  82 NW6       29.95S
HR EXEC AP*    SUNNY     48  43  81 W6        29.96R
FRANKLIN*      CLEAR     46  43  87 CALM      29.96R
WAKEFIELD      CLEAR     48  42  80 CALM      29.96R
$$

VAZ020-022-025-037-045-241000-
WEST CENTRAL AND SOUTHWEST VIRGINIA

CITY           SKY/WX    TMP DP  RH WIND       PRES   REMARKS
STAUNTON*      CLEAR     36  33  89 SW3       30.02R
HOT SPRINGS VA PTCLDY    39  38  95 W18G24    30.01S
LYNCHBURG      PTCLDY    45  40  82 CALM      30.03R
DANVILLE       MOCLDY    50  40  68 W5        30.03R
SOUTH BOSTON*  NOT AVBL
MARTINSVILLE   PTCLDY    40  40 100 CALM      30.07R
ROANOKE        MOCLDY    47  39  74 W10       30.08S
BLACKSBURG     PTCLDY    37  37 100 CALM      30.09R
DUBLIN*        PTCLDY    45  41  87 W5        30.10S
MARION*        PTCLDY    37  36  95 W6        30.13S FOG
HILLSVILLE*    MOCLDY    41  38  89 SW5       30.08S
RICHLANDS*     PTSUNNY   42  40  93 E3        30.11S
WISE*          PTCLDY    41  41 100 CALM      30.12S
ABINGDON*      PTCLDY    38  37  99 CALM      30.11S FOG
$$

MDZ021>025-VAZ099-100-241000-
SOUTHERN MARYLAND AND THE DELMARVA PENINSULA

CITY           SKY/WX    TMP DP  RH WIND       PRES   REMARKS
PATUXENT RIVER CLEAR     55  41  59 W15       29.91R
BAY BRIDGE APT   N/A     55  41  58 NW10G18   29.89S
LEONARDTOWN    CLEAR     52  41  66 W3        29.94R
DOVER          PTCLDY    53  45  74 W7        29.84R
GEORGETOWN     CLOUDY    55  46  71 VRB3      29.87R
EASTON         PTCLDY    57  46  66 NW13      29.92R
CAMBRIDGE      PTCLDY    59  43  55 NW12G18   29.89R
SALISBURY      CLOUDY    58  46  64 NW8       29.87S
OCEAN CITY     CLOUDY    53  46  77 W6        29.86R
WALLOPS ISLAND CLEAR     55  46  71 NW10      29.89R
ACCOMACK*      CLEAR     57  41  54 NW8G20    29.89R
$$

NCZ012>017-030>032-241000-
EASTERN NORTH CAROLINA

CITY           SKY/WX    TMP DP  RH WIND       PRES   REMARKS
ELIZABETH CITY PTCLDY    50  44  80 W8        29.94R
AHOSKIE*       MOCLDY    46  42  89 CALM      29.98S
EDENTON*       PTCLDY    52  45  77 NW8       29.96R
CURRITUCK*     PTCLDY    50  43  77 W6        29.94R
KILL DEVIL HLS PTCLDY    55  47  72 NW7       29.91R
MANTEO         PTCLDY    56  47  71 NW9G17    29.93R
CAPE HATTERAS  CLEAR     58  49  72 NW10G18   29.93R
TARBORO*       MOSUNNY   48  44  86 CALM      30.00S
GOLDSBORO      PTCLDY    48  47  97 W6        29.99R
WASHINGTON     CLEAR     48  45  89 NW3       29.98S
GREENVILLE     PTCLDY    46  45  93 CALM      30.01R
NEW BERN       CLEAR     50  45  83 NW3       29.99R
WILMINGTON     PTCLDY    49  46  90 NW3       29.98F
$$

VAZ048-241000-
ELSEWHERE

CITY           SKY/WX    TMP DP  RH WIND       PRES   REMARKS
HARRISBURG PA  MOCLDY    56  42  59 NW14      29.90R
BALTIMORE      PTCLDY    54  42  64 NW7       29.89S
ANNAPOLIS      CLEAR     55  42  61 NW7       29.89S
ANDREWS AFB    CLEAR     54  42  64 NW12      29.92R
WILMINGTON DE  CLOUDY    57  45  64 N10       29.85S
PHILADELPHIA   CLOUDY    57  44  62 NW10      29.85R
WILDWOOD NJ*   MOCLDY    55  43  62 NW8       29.85R
ATLANTIC CITY  CLEAR     46  43  89 NW6       29.82S
HENDERSON NC   CLEAR     48  40  72 NW5       30.01R
GREENSBORO     PTCLDY    45  40  82 CALM      30.02F
ROCKY MOUNT    PTCLDY    49  42  77 N5        30.00R
FAYETTEVILLE   PTCLDY    50  42  74 N6        30.00S
CHARLOTTE      MOCLDY    42  40  92 N3        30.04F
$$

VAZ100-241000-
MARINE

STATION/POSITION TIME  TEMP    WIND        PRES    WAVE   SWELL
                       AIR SEA DIR/SP/G            HT/PER HT/PER
                 (UTC) (F)     (DEG/KT/KT) (MB)    (FT/S) (FT/S)
44066 TX TWR #4  0900   57 66  330/ 19/ 25 1005.9R  10/ 7   3/11
CAPE MAY NJ      0900   57 62  320/ 10/ 18 1010.1R
LEWES DE         0900   57 58  300/ 13/ 15 1010.6R
15NM E FENWICK I 0900   60 64  300/ 17/ 21 1009.9R   5/ 7
OCEAN-CITY-INLET 0900   54 60  300/  8/ 10 1010.8R
WACHAPREAGUE VA  0900   58 59  330/  5/ 14 1011.7F
THOMAS POINT MD  0900   56 62  300/ 14/ 15 1013.4R
GOOSES REEF MD   0900   58     310/ 16/ 17 1012.9R
COVE POINT MD    0900   56     320/ 12/ 16 1012.6R
SOLOMONS ISLAND  0900      64                N/A
BISHOPS HEAD MD  0900   57 56  320/ 13/ 17 1011.9R
PINEY POINT MD   0900          340/ 21/ 24   N/A
POTOMAC MD       0900   59     340/ 19/ 23 1012.4R
CAMBRIDGE MD     0900   58 60  300/ 14/ 18 1011.8R
LEWISETTA VA     0900   58 59  330/ 15/ 21 1012.8R
RAPPAHANNOCK LGT 0900          320/ 22/ 25 1012.7R
STINGRAY PT      0900   58     320/ 17/ 21 1013.1R
YORK RVR RNG VA  0900   56     320/ 15/ 19 1013.1R
YORKTOWN VA      0900   56 64  300/ 12/ 14 1013.3R
JAMESTOWN VA     0900   54     310/ 12/ 14   N/A
DOMINION TERM VA 0900   57     320/ 16/ 19 1013.2R
KIPTOPEKE VA     0900      65  320/ 20/ 25   N/A
CHES BAY BRIDGE  0900   58 65  300/ 17/ 22 1012.6R
CHESAPEAKE LGHT  0800   60     320/ 24/ 26 1012.6F
WILLOUBY STN VA  0900   58     320/ 15/ 18 1012.0R
S CRANEY ISL VA  0900          270/  9/ 13 1013.2R
CAPE HENRY BUOY  0900      68                N/A     5/ 5
1ST LANDING BUOY 0900   60     310/ 19/ 23 1012.7R
CAPE CHARLES BUO 0900      66                N/A     4/ 7   2/ 7
64NM E OF VA BCH 0900   63 66  330/ 17/ 19 1011.2R   6/ 7   3/ 9
DUCK PIER NC     0900   55 66  300/ 16/ 19 1012.5R
44100 DUCK FRF   0900      68                N/A     5/ 8
44056 DUCK FRF   0900                        N/A     4/ 8
OREGON INLET NC  0900   57 64  310/ 10/ 16 1013.0R
HATTERAS NC      0900   61 64  330/ 18/ 22 1013.7S
DIAMOND SHLS NC  0900   63     320/ 21/ 25 1012.8S   4/ 7   2/ 7
CAPE LOOKOUT NC  0800   58     330/ 12/ 13 1014.1F
$$



USA.gov is the U.S. government's official web portal to all federal, state and local government web resources and services.